When you browse on this site, cookies collect data to enhance your experience and personalize the content and advertising you see.
Visit our Privacy Policy to learn more. By continuing to use the site, you agree to this use of cookies and data.
  • en Belgique
  • Liste des pays
  • À 7 jours
  • Température de l'eau
  • Carte météo
  • Widgets météo
  • user-avatar
    Se connecter

    Météo par heure à Gaborone

    Ce jour, 6 Juin, Samedi

    Heure Température Précipitation Vent Pression Humidité
    00:00 +12°C° 0 mm 0 m/s 682 mmHg 48%
    01:00 +12°C° 0 mm 0 m/s 681 mmHg 50%
    02:00 +11°C° 0 mm 0 m/s 681 mmHg 52%
    03:00 +11°C° 0 mm 0 m/s 681 mmHg 53%
    04:00 +10°C° 0 mm 0 m/s 681 mmHg 55%
    05:00 +10°C° 0 mm 0 m/s 681 mmHg 56%
    06:00 +10°C° 0 mm 0 m/s 682 mmHg 55%
    07:00 +12°C° 0 mm 1 m/s 682 mmHg 53%
    08:00 +12°C° 0 mm 1 m/s 683 mmHg 51%
    09:00 +15°C° 0 mm 1 m/s 683 mmHg 45%
    10:00 +18°C° 0 mm 1 m/s 684 mmHg 38%
    11:00 +20°C° 0 mm 2 m/s 684 mmHg 31%
    12:00 +21°C° 0 mm 2 m/s 683 mmHg 28%
    13:00 +23°C° 0 mm 2 m/s 683 mmHg 25%
    14:00 +24°C° 0 mm 2 m/s 683 mmHg 22%
    15:00 +24°C° 0 mm 2 m/s 682 mmHg 23%
    16:00 +23°C° 0 mm 2 m/s 682 mmHg 24%
    17:00 +21°C° 0 mm 2 m/s 681 mmHg 25%
    18:00 +20°C° 0 mm 1 m/s 682 mmHg 30%
    19:00 +19°C° 0 mm 1 m/s 682 mmHg 34%
    20:00 +16°C° 0 mm 1 m/s 682 mmHg 39%
    21:00 +15°C° 0 mm 1 m/s 682 mmHg 41%
    22:00 +13°C° 0 mm 0 m/s 682 mmHg 42%
    23:00 +13°C° 0 mm 0 m/s 682 mmHg 44%

    Demain, 7 Juin, Dimanche

    Heure Température Précipitation Vent Pression Humidité
    00:00 +12°C° 0 mm 0 m/s 682 mmHg 46%
    01:00 +13°C° 0 mm 1 m/s 681 mmHg 47%
    02:00 +12°C° 0 mm 1 m/s 681 mmHg 49%
    03:00 +12°C° 0 mm 1 m/s 681 mmHg 52%
    04:00 +11°C° 0 mm 1 m/s 681 mmHg 56%
    05:00 +9°C° 0 mm 0 m/s 681 mmHg 59%
    06:00 +10°C° 0 mm 0 m/s 681 mmHg 57%
    07:00 +10°C° 0 mm 0 m/s 682 mmHg 55%
    08:00 +11°C° 0 mm 0 m/s 682 mmHg 54%
    09:00 +15°C° 0 mm 1 m/s 683 mmHg 49%
    10:00 +18°C° 0 mm 1 m/s 683 mmHg 43%
    11:00 +21°C° 0 mm 1 m/s 684 mmHg 38%
    12:00 +22°C° 0 mm 1 m/s 683 mmHg 34%
    13:00 +23°C° 0 mm 2 m/s 683 mmHg 30%
    14:00 +24°C° 0 mm 2 m/s 682 mmHg 26%
    15:00 +24°C° 0 mm 1 m/s 682 mmHg 27%
    16:00 +23°C° 0 mm 1 m/s 681 mmHg 28%
    17:00 +22°C° 0 mm 1 m/s 681 mmHg 29%
    18:00 +20°C° 0 mm 1 m/s 681 mmHg 33%
    19:00 +18°C° 0 mm 1 m/s 681 mmHg 38%
    20:00 +16°C° 0 mm 1 m/s 681 mmHg 42%
    21:00 +15°C° 0 mm 1 m/s 681 mmHg 44%
    22:00 +15°C° 0 mm 1 m/s 681 mmHg 46%
    23:00 +13°C° 0 mm 0 m/s 681 mmHg 48%

    Après-demain, 8 Juin, Lundi

    Heure Température Précipitation Vent Pression Humidité
    00:00 +13°C° 0 mm 0 m/s 681 mmHg 49%
    01:00 +12°C° 0 mm 0 m/s 680 mmHg 51%
    02:00 +12°C° 0 mm 0 m/s 680 mmHg 53%
    03:00 +11°C° 0 mm 0 m/s 680 mmHg 54%
    04:00 +12°C° 0 mm 1 m/s 680 mmHg 55%
    05:00 +11°C° 0 mm 1 m/s 680 mmHg 57%
    06:00 +12°C° 0 mm 1 m/s 680 mmHg 55%
    07:00 +12°C° 0 mm 1 m/s 681 mmHg 54%
    08:00 +13°C° 0 mm 1 m/s 681 mmHg 52%
    09:00 +15°C° 0 mm 1 m/s 682 mmHg 45%
    10:00 +19°C° 0 mm 1 m/s 682 mmHg 38%
    11:00 +21°C° 0 mm 2 m/s 683 mmHg 31%
    12:00 +23°C° 0 mm 2 m/s 682 mmHg 28%
    13:00 +24°C° 0 mm 2 m/s 681 mmHg 25%
    14:00 +25°C° 0 mm 2 m/s 681 mmHg 21%
    15:00 +24°C° 0 mm 2 m/s 680 mmHg 22%
    16:00 +23°C° 0 mm 2 m/s 680 mmHg 23%
    17:00 +23°C° 0 mm 2 m/s 680 mmHg 23%
    18:00 +21°C° 0 mm 1 m/s 680 mmHg 27%
    19:00 +19°C° 0 mm 1 m/s 680 mmHg 30%
    20:00 +16°C° 0 mm 1 m/s 679 mmHg 33%
    21:00 +15°C° 0 mm 1 m/s 680 mmHg 35%
    22:00 +14°C° 0 mm 0 m/s 680 mmHg 36%
    23:00 +13°C° 0 mm 0 m/s 680 mmHg 38%

    9 Juin, Mardi

    Heure Température Précipitation Vent Pression Humidité
    00:00 +13°C° 0 mm 0 m/s 680 mmHg 39%
    01:00 +12°C° 0 mm 0 m/s 679 mmHg 40%
    02:00 +12°C° 0 mm 0 m/s 679 mmHg 40%
    03:00 +11°C° 0 mm 0 m/s 679 mmHg 42%
    04:00 +12°C° 0 mm 1 m/s 679 mmHg 44%
    05:00 +11°C° 0 mm 1 m/s 679 mmHg 45%
    06:00 +12°C° 0 mm 1 m/s 680 mmHg 44%
    07:00 +12°C° 0 mm 1 m/s 680 mmHg 43%
    08:00 +13°C° 0 mm 1 m/s 680 mmHg 43%
    09:00 +15°C° 0 mm 1 m/s 681 mmHg 41%
    10:00 +18°C° 0 mm 2 m/s 681 mmHg 39%
    11:00 +21°C° 0 mm 3 m/s 682 mmHg 37%
    12:00 +22°C° 0 mm 3 m/s 681 mmHg 34%
    13:00 +24°C° 0 mm 3 m/s 680 mmHg 30%
    14:00 +25°C° 0 mm 3 m/s 680 mmHg 26%
    15:00 +25°C° 0 mm 3 m/s 679 mmHg 27%
    16:00 +24°C° 0 mm 3 m/s 679 mmHg 28%
    17:00 +23°C° 0 mm 2 m/s 679 mmHg 28%
    18:00 +20°C° 0 mm 2 m/s 679 mmHg 33%
    19:00 +19°C° 0 mm 2 m/s 679 mmHg 37%
    20:00 +17°C° 0 mm 2 m/s 679 mmHg 41%
    21:00 +16°C° 0 mm 2 m/s 679 mmHg 42%
    22:00 +16°C° 0 mm 2 m/s 679 mmHg 44%
    23:00 +15°C° 0 mm 2 m/s 679 mmHg 46%

    10 Juin, Mercredi

    Heure Température Précipitation Vent Pression Humidité
    00:00 +14°C° 0 mm 1 m/s 679 mmHg 50%
    01:00 +13°C° 0 mm 1 m/s 679 mmHg 53%
    02:00 +12°C° 0 mm 1 m/s 678 mmHg 57%
    03:00 +12°C° 0 mm 1 m/s 678 mmHg 61%
    04:00 +12°C° 0 mm 1 m/s 678 mmHg 64%
    05:00 +11°C° 0 mm 1 m/s 678 mmHg 68%
    06:00 +12°C° 0 mm 1 m/s 678 mmHg 68%
    07:00 +12°C° 0 mm 1 m/s 679 mmHg 68%
    08:00 +12°C° 0 mm 1 m/s 679 mmHg 68%
    09:00 +15°C° 0 mm 2 m/s 679 mmHg 60%
    10:00 +18°C° 0 mm 3 m/s 680 mmHg 53%
    11:00 +21°C° 0 mm 4 m/s 680 mmHg 45%
    12:00 +22°C° 0 mm 4 m/s 679 mmHg 38%
    13:00 +25°C° 0 mm 4 m/s 679 mmHg 31%
    14:00 +26°C° 0 mm 4 m/s 678 mmHg 24%
    15:00 +26°C° 0 mm 3 m/s 678 mmHg 24%
    16:00 +25°C° 0 mm 2 m/s 677 mmHg 24%
    17:00 +24°C° 0 mm 2 m/s 677 mmHg 24%
    18:00 +22°C° 0 mm 1 m/s 677 mmHg 27%
    19:00 +20°C° 0 mm 1 m/s 677 mmHg 31%
    20:00 +19°C° 0 mm 1 m/s 676 mmHg 34%
    21:00 +18°C° 0 mm 1 m/s 676 mmHg 36%
    22:00 +16°C° 0 mm 1 m/s 676 mmHg 37%
    23:00 +16°C° 0 mm 1 m/s 676 mmHg 39%

    11 Juin, Jeudi

    Heure Température Précipitation Vent Pression Humidité
    00:00 +15°C° 0 mm 1 m/s 676 mmHg 40%
    01:00 +15°C° 0 mm 2 m/s 675 mmHg 41%
    02:00 +14°C° 0 mm 2 m/s 675 mmHg 42%
    03:00 +14°C° 0 mm 2 m/s 675 mmHg 42%
    04:00 +13°C° 0 mm 2 m/s 675 mmHg 43%
    05:00 +13°C° 0 mm 2 m/s 675 mmHg 43%
    06:00 +13°C° 0 mm 2 m/s 676 mmHg 43%
    07:00 +13°C° 0 mm 2 m/s 676 mmHg 42%
    08:00 +13°C° 0 mm 2 m/s 677 mmHg 41%
    09:00 +16°C° 0 mm 2 m/s 677 mmHg 35%
    10:00 +18°C° 0 mm 2 m/s 678 mmHg 29%
    11:00 +20°C° 0 mm 2 m/s 678 mmHg 22%
    12:00 +22°C° 0 mm 3 m/s 678 mmHg 21%
    13:00 +24°C° 0 mm 3 m/s 677 mmHg 19%
    14:00 +25°C° 0 mm 3 m/s 677 mmHg 18%
    15:00 +25°C° 0 mm 3 m/s 677 mmHg 19%
    16:00 +24°C° 0 mm 3 m/s 676 mmHg 20%
    17:00 +22°C° 0 mm 3 m/s 676 mmHg 22%
    18:00 +20°C° 0 mm 3 m/s 676 mmHg 25%
    19:00 +18°C° 0 mm 3 m/s 677 mmHg 29%
    20:00 +14°C° 0 mm 3 m/s 677 mmHg 32%
    21:00 +13°C° 0 mm 3 m/s 677 mmHg 34%
    22:00 +12°C° 0 mm 3 m/s 677 mmHg 35%
    23:00 +12°C° 0 mm 2 m/s 677 mmHg 37%
    Voir plus